Wichita, KS

7:34 AM CDT on April 25, 2017 (GMT -0500)
Wichita Eisenhower National Airport

Weather History for KICT - March, 2013

Change the Weather History Date:

Friday, March 29, 2013

  Actual Average Record
Temperature  
Mean Temperature 60 °F 50 °F  
Max Temperature 74 °F 62 °F 90 °F (1895)
Min Temperature 46 °F 39 °F 16 °F (1894)
Degree Days  
Heating Degree Days 5 15  
Month to date heating degree days 656 548  
Since 1 July heating degree days 3927 4188  
Cooling Degree Days 0 0  
Month to date cooling degree days 0 0  
Year to date cooling degree days 0 0  
Growing Degree Days 10 (Base 50)    
Moisture  
Dew Point 50 °F    
Average Humidity 71    
Maximum Humidity 93    
Minimum Humidity 49    
Precipitation  
Precipitation 0.00 in 0.10 in 1.10 in (1980)
Month to date precipitation 1.62 2.49  
Year to date precipitation 4.64 4.50  
Snow  
Snow 0.00 in 0.10 in 3.00 in (1926)
Month to date snowfall 5.3 2.2  
Since 1 July snowfall 29.8 14.6  
Snow Depth 0.00 in    
Sea Level Pressure  
Sea Level Pressure 30.08 in    
Wind  
Wind Speed 9 mph (ESE)    
Max Wind Speed 17 mph    
Max Gust Speed 25 mph    
Visibility 10 miles    
Events Thunderstorm    
T = Trace of Precipitation, MM = Missing Value Source: NWS Daily Summary

Daily Weather History Graph

Daily Weather History Graph

Search for Another Location

Airport or City:

Trip Planner

Search our weather history database for the weather conditions in past years. The results will help you decide how hot, cold, wet, or windy it might be!

Date:

Astronomy

Mar. 29, 2013 Rise Set
Actual Time 7:19 AM CDT 7:50 PM CDT
Civil Twilight 6:52 AM CDT 8:16 PM CDT
Nautical Twilight 6:21 AM CDT 8:47 PM CDT
Astronomical Twilight 5:50 AM CDT 9:19 PM CDT
Moon 10:47 PM CDT (3/29) 8:32 AM CDT (3/29)
Length of Visible Light 13h 23m
Length of Day
12h 30m
Waning Gibbous, 93% of the Moon is Illuminated
Mar 29
Waning Gibbous
Apr 2
Last Quarter
Apr 10
New
Apr 18
First Quarter
Apr 25
Full

Hourly Weather History & Observations

Time (CDT) Temp. Dew Point Humidity Pressure Visibility Wind Dir Wind Speed Gust Speed Precip Events Conditions
12:53 AM 57.0 °F 46.9 °F 69% 30.10 in 10.0 mi East 6.9 mph - N/A   Overcast
1:53 AM 53.1 °F 46.0 °F 77% 30.09 in 10.0 mi SE 5.8 mph - N/A   Partly Cloudy
2:53 AM 53.1 °F 46.0 °F 77% 30.10 in 10.0 mi Calm Calm - N/A   Scattered Clouds
3:53 AM 51.1 °F 46.0 °F 83% 30.09 in 10.0 mi NE 5.8 mph - N/A   Scattered Clouds
4:53 AM 48.9 °F 45.0 °F 86% 30.09 in 9.0 mi NE 3.5 mph - N/A   Partly Cloudy
5:53 AM 48.9 °F 45.0 °F 86% 30.10 in 9.0 mi Calm Calm - N/A   Scattered Clouds
6:53 AM 48.0 °F 45.0 °F 89% 30.11 in 8.0 mi NNE 3.5 mph - N/A   Scattered Clouds
7:53 AM 48.9 °F 46.0 °F 90% 30.13 in 8.0 mi NE 3.5 mph - N/A   Scattered Clouds
8:53 AM 54.0 °F 48.9 °F 83% 30.14 in 9.0 mi East 4.6 mph - N/A   Scattered Clouds
9:53 AM 59.0 °F 50.0 °F 72% 30.14 in 10.0 mi East 5.8 mph - N/A   Scattered Clouds
10:53 AM 64.9 °F 53.1 °F 65% 30.12 in 10.0 mi East 6.9 mph - N/A   Clear
11:53 AM 68.0 °F 54.0 °F 61% 30.11 in 10.0 mi ENE 10.4 mph - N/A   Scattered Clouds
12:53 PM 71.1 °F 54.0 °F 55% 30.09 in 10.0 mi East 11.5 mph - N/A   Mostly Cloudy
1:53 PM 71.1 °F 53.1 °F 53% 30.08 in 10.0 mi East 11.5 mph 20.7 mph N/A   Mostly Cloudy
2:53 PM 73.0 °F 53.1 °F 49% 30.06 in 10.0 mi ESE 12.7 mph - N/A   Mostly Cloudy
3:53 PM 72.0 °F 51.1 °F 48% 30.04 in 10.0 mi SE 10.4 mph - N/A   Mostly Cloudy
4:53 PM 72.0 °F 51.1 °F 48% 30.04 in 10.0 mi SSE 16.1 mph 19.6 mph N/A   Mostly Cloudy
5:53 PM 71.1 °F 51.1 °F 49% 30.04 in 10.0 mi SE 13.8 mph 24.2 mph N/A   Mostly Cloudy
6:53 PM 69.1 °F 52.0 °F 54% 30.04 in 10.0 mi SSE 11.5 mph - N/A   Mostly Cloudy
7:53 PM 66.0 °F 52.0 °F 60% 30.04 in 10.0 mi ESE 11.5 mph - N/A   Mostly Cloudy
8:53 PM 63.0 °F 53.1 °F 70% 30.04 in 10.0 mi ESE 16.1 mph - N/A   Scattered Clouds
9:53 PM 61.0 °F 52.0 °F 72% 30.05 in 10.0 mi SE 11.5 mph - N/A   Scattered Clouds
10:53 PM 59.0 °F 52.0 °F 78% 30.04 in 10.0 mi SE 10.4 mph - N/A   Mostly Cloudy
11:53 PM 57.9 °F 53.1 °F 84% 30.01 in 8.0 mi ESE 8.1 mph - N/A Thunderstorm Thunderstorm